TimeAKDT,TemperatureF,Dew PointF,Humidity,Sea Level PressureIn,VisibilityMPH,Wind Direction,Wind SpeedMPH,Gust SpeedMPH,PrecipitationIn,Events,Conditions,WindDirDegrees,DateUTC
12:53 AM,8.1,-6.0,53,29.89,10.0,East,16.1,-,N/A,,Clear,80,2013-03-16 08:53:00
1:53 AM,5.0,-6.0,61,29.90,10.0,East,12.7,-,N/A,,Clear,90,2013-03-16 09:53:00
2:53 AM,15.1,-0.9,49,29.91,4.0,East,23.0,36.8,N/A,Snow,Blowing Snow,90,2013-03-16 10:53:00
3:53 AM,12.9,1.9,62,29.90,9.0,ESE,25.3,-,0.00,,Clear,110,2013-03-16 11:53:00
4:53 AM,12.0,1.9,64,29.92,3.0,East,20.7,32.2,N/A,Snow,Blowing Snow,80,2013-03-16 12:53:00
5:53 AM,10.9,1.9,67,29.93,10.0,East,20.7,-,N/A,,Clear,100,2013-03-16 13:53:00
6:53 AM,10.9,1.9,67,29.94,9.0,East,20.7,27.6,N/A,,Clear,100,2013-03-16 14:53:00
7:53 AM,10.0,1.0,67,29.96,9.0,ENE,17.3,-,N/A,,Clear,70,2013-03-16 15:53:00
8:53 AM,12.0,1.0,61,29.98,9.0,East,24.2,-,N/A,,Clear,100,2013-03-16 16:53:00
9:53 AM,9.0,-0.9,64,29.99,9.0,East,19.6,-,N/A,,Clear,100,2013-03-16 17:53:00
10:53 AM,9.0,-2.9,59,30.01,10.0,ENE,13.8,-,0.00,,Clear,60,2013-03-16 18:53:00
11:53 AM,10.9,-2.0,56,30.02,10.0,ENE,11.5,-,0.00,,Clear,70,2013-03-16 19:53:00
12:53 PM,16.0,-0.0,49,30.03,9.0,ESE,25.3,32.2,N/A,,Clear,110,2013-03-16 20:53:00
1:53 PM,17.1,1.0,50,30.05,5.0,East,17.3,29.9,0.00,,Haze,90,2013-03-16 21:53:00
2:44 PM,15.8,3.2,58,30.05,2.0,ENE,24.2,-,0.00,,Clear,70,2013-03-16 22:44:00
2:53 PM,16.0,3.9,59,30.04,4.0,NE,21.9,32.2,0.00,,Clear,50,2013-03-16 22:53:00
3:53 PM,16.0,3.0,57,30.04,8.0,East,16.1,-,0.00,,Clear,90,2013-03-16 23:53:00
4:53 PM,15.1,3.9,61,30.03,9.0,East,16.1,-,0.00,,Clear,80,2013-03-17 00:53:00
5:53 PM,15.1,5.0,64,30.05,10.0,ENE,8.1,-,N/A,,Clear,60,2013-03-17 01:53:00
6:53 PM,12.9,3.9,67,30.05,10.0,NE,12.7,-,N/A,,Clear,50,2013-03-17 02:53:00
7:33 PM,17.6,3.2,53,30.05,10.0,ESE,17.3,-,N/A,,Clear,110,2013-03-17 03:33:00
7:53 PM,15.1,3.9,61,30.07,10.0,ESE,12.7,-,N/A,,Clear,110,2013-03-17 03:53:00
8:53 PM,10.9,1.9,67,30.08,10.0,East,12.7,-,N/A,,Clear,80,2013-03-17 04:53:00
9:53 PM,14.0,3.9,64,30.10,10.0,East,16.1,-,N/A,,Clear,90,2013-03-17 05:53:00
10:53 PM,14.0,3.9,64,30.12,10.0,East,20.7,-,N/A,,Partly Cloudy,100,2013-03-17 06:53:00
11:53 PM,15.1,3.0,59,30.13,10.0,East,17.3,-,N/A,,Partly Cloudy,90,2013-03-17 07:53:00